FW7205 Weather Reports


time (UTC)temp
F
wind
direction
speed
knots
gust
knots
rain 1hr
in
rain 24hr
in
rain mn
in
humidity
%
barometer
mb
20260902071603 79 0 0.0 0.0 0.00 0.00 0.00 80 1013.3
20260902070108 79 0 0.0 0.0 0.00 0.00 0.00 80 1013.3
20260902064603 79 0 0.0 0.0 0.00 0.00 0.00 80 1013.5
20260902063106 79 0 0.0 0.0 0.00 0.00 0.00 79 1013.2
20260902061614 80 0 0.0 0.0 0.00 0.00 0.00 79 1013.0
20260902060120 80 0 0.0 0.0 0.00 0.00 0.00 78 1013.3
20260902054559 80 0 0.0 0.0 0.00 0.00 0.00 78 1013.5
20260902053101 80 0 0.0 0.0 0.00 0.00 0.00 78 1013.4
20260902051602 80 0 0.0 0.0 0.00 0.00 0.00 77 1013.4
20260902050106 81 0 0.0 0.0 0.00 0.00 0.00 77 1013.2
20260902044602 81 0 0.0 0.0 0.00 0.00 0.00 76 1013.2
20260902043105 81 0 0.0 0.0 0.00 0.00 0.00 76 1013.3
20260902041603 81 0 0.0 0.0 0.00 0.00 0.00 76 1013.5
20260902040106 81 0 0.0 0.0 0.00 0.00 0.00 75 1013.4
20260902034605 82 0 0.0 0.0 0.00 0.00 0.00 75 1013.5
20260902033115 82 0 0.0 0.0 0.00 0.00 0.00 75 1013.5
20260902031601 82 0 0.0 0.0 0.00 0.00 0.00 74 1013.1
20260902024601 83 0 0.0 0.0 0.00 0.00 0.00 72 1013.0
20260902023110 83 0 0.0 0.0 0.00 0.00 0.00 72 1012.7
20260902021609 84 0 0.0 0.0 0.00 0.00 0.00 72 1012.5
20260902020105 84 0 0.0 1.7 0.00 0.00 0.00 71 1012.2
20260902014603 84 0 0.0 0.0 0.00 0.00 0.00 70 1012.3
20260902013059 85 0 0.0 2.6 0.00 0.00 0.00 70 1012.0
20260902011601 85 0 0.0 1.7 0.00 0.00 0.00 69 1011.9
20260902010101 86 86 0.0 4.3 0.00 0.00 0.00 67 1011.9
20260902004601 87 148 0.9 3.5 0.00 0.00 0.00 65 1012.1
20260902003106 88 111 0.9 4.3 0.00 0.00 0.00 63 1011.9
20260902001601 89 75 0.9 5.2 0.00 0.00 0.00 60 1011.8
20260901234609 94 83 1.7 5.2 0.00 0.00 0.00 54 1011.5
20260901233111 95 0 0.9 6.1 0.00 0.00 0.00 49 1011.3
20260901231612 95 67 0.9 3.5 0.00 0.00 0.00 49 1011.2
20260901230104 95 360 1.7 6.1 0.00 0.00 0.00 48 1011.2
20260901224605 95 88 1.7 3.5 0.00 0.00 0.00 49 1011.3
20260901223103 95 87 0.9 3.5 0.00 0.00 0.00 49 1011.2
20260901221620 95 360 0.9 3.5 0.00 0.00 0.00 48 1011.4
20260901220134 95 69 0.9 3.5 0.00 0.00 0.00 48 1011.3
20260901214604 95 66 0.9 4.3 0.00 0.00 0.00 47 1011.3
20260901213122 95 65 0.0 3.5 0.00 0.00 0.00 48 1011.5
20260901211602 95 53 0.9 2.6 0.00 0.00 0.00 48 1011.8
20260901210107 94 360 0.0 2.6 0.00 0.00 0.00 51 1011.9
20260901204609 94 79 0.9 3.5 0.00 0.00 0.00 51 1012.2
20260901203110 94 70 1.7 5.2 0.00 0.00 0.00 51 1012.4
20260901201603 94 74 0.9 4.3 0.00 0.00 0.00 52 1012.8
20260901200100 94 73 0.0 3.5 0.00 0.00 0.00 53 1013.1
20260901194601 93 0 0.0 3.5 0.00 0.00 0.00 53 1013.0
20260901193104 93 80 0.9 4.3 0.00 0.00 0.00 56 1013.3
20260901191616 93 90 0.0 2.6 0.00 0.00 0.00 55 1013.1
20260901190059 93 67 0.9 4.3 0.00 0.00 0.00 54 1013.3
20260901184605 94 68 0.9 3.5 0.00 0.00 0.00 54 1013.5
20260901183104 95 71 1.7 6.1 0.00 0.00 0.00 51 1013.8
20260901181602 96 82 0.0 4.3 0.00 0.00 0.00 51 1014.0
20260901180059 95 0 0.0 2.6 0.00 0.00 0.00 55 1014.2
20260901174602 94 69 0.9 4.3 0.00 0.00 0.00 55 1014.7
20260901173129 94 76 0.0 3.5 0.00 0.00 0.00 55 1015.0
20260901171611 93 67 0.9 4.3 0.00 0.00 0.00 56 1015.1
20260901164601 92 146 1.7 4.3 0.00 0.00 0.00 59 1015.3
20260901163105 91 82 1.7 3.5 0.00 0.00 0.00 62 1015.4
20260901161602 90 360 0.0 1.7 0.00 0.00 0.00 65 1015.6
20260901160106 88 0 0.0 0.9 0.00 0.00 0.00 66 1015.5
20260901154601 88 0 0.0 1.7 0.00 0.00 0.00 70 1015.5
20260901153109 87 0 0.0 0.9 0.00 0.00 0.00 71 1015.5
20260901151609 87 0 0.0 1.7 0.00 0.00 0.00 73 1015.5
20260901150100 86 0 0.0 2.6 0.00 0.00 0.00 75 1015.6
20260901144604 85 0 0.0 2.6 0.00 0.00 0.00 78 1015.5
20260901143100 83 146 0.0 0.9 0.00 0.00 0.00 79 1015.4
20260901141603 82 0 0.0 0.9 0.00 0.00 0.00 81 1015.8
20260901140104 81 0 0.0 0.0 0.00 0.00 0.00 83 1015.9
20260901134616 80 0 0.0 1.7 0.00 0.00 0.00 85 1015.9
20260901133104 79 0 0.0 1.7 0.00 0.00 0.00 86 1015.9
20260901131606 78 154 0.0 1.7 0.00 0.00 0.00 87 1015.7
20260901130111 78 0 0.0 0.9 0.00 0.00 0.00 87 1015.6
20260901124600 77 0 0.0 0.0 0.00 0.00 0.00 87 1015.3
20260901123107 77 0 0.0 0.0 0.00 0.00 0.00 86 1015.2
20260901121603 77 0 0.0 0.0 0.00 0.00 0.00 86 1015.0
20260901120104 77 0 0.0 0.0 0.00 0.00 0.00 86 1014.9
20260901114559 78 0 0.0 0.0 0.00 0.00 0.00 85 1014.5
20260901113117 78 0 0.0 0.0 0.00 0.00 0.00 85 1014.6
20260901111602 78 0 0.0 0.0 0.00 0.00 0.00 85 1014.6
20260901110126 78 0 0.0 0.0 0.00 0.00 0.00 85 1014.3
20260901104621 78 0 0.0 0.0 0.00 0.00 0.00 84 1014.3
20260901103102 78 0 0.0 0.0 0.00 0.00 0.00 84 1014.4
20260901101607 79 0 0.0 0.0 0.00 0.00 0.00 84 1014.2
20260901100118 79 0 0.0 0.0 0.00 0.00 0.00 84 1014.2
20260901094615 79 0 0.0 0.0 0.00 0.00 0.00 83 1014.2
20260901093126 79 0 0.0 0.0 0.00 0.00 0.00 83 1014.2
20260901091614 79 0 0.0 0.0 0.00 0.00 0.00 82 1014.5
20260901090107 80 0 0.0 0.0 0.00 0.00 0.00 82 1014.3
20260901084613 80 0 0.0 0.0 0.00 0.00 0.00 81 1014.3
20260901083102 80 0 0.0 0.0 0.00 0.00 0.00 81 1014.4
20260901081600 80 0 0.0 0.0 0.00 0.00 0.00 81 1014.5
20260901080110 81 0 0.0 0.0 0.00 0.00 0.00 80 1014.4
20260901074604 81 0 0.0 0.0 0.00 0.00 0.00 79 1014.5
20260901073109 81 0 0.0 0.0 0.00 0.00 0.00 79 1014.4